Terug naar catalogus

STARLINK-33816

ActiefCommunicatieVLEO
NORAD 63677·PAYLOAD·🇺🇸 United States

Gelanceerd Apr 28, 2025 vanaf Cape Canaveral Space Force Station

Loading…

Volgende Passages (komende 24 uur)

TLE

VersSource: CelesTrak SupGP

Epoch: Sep 14, 2026, 21:02 UTC

1 63677C 25085P   26257.87687500  .00051527  00000+0  18671-2 0  2573
2 63677  43.0013  42.6324 0001473 277.2181  21.4521 15.27538938    13

Volg STARLINK-33816 in realtime met AllMySat

Download on the App Store